If you wish to contribute or participate in the discussions about articles you are invited to join SKYbrary as a registered user

 Actions

Angel S Adami Airport

From SKYbrary Wiki

SUAA
Airport
ICAO: SUAA
Summary
Name Angel S Adami Airport
Region
Territory Uruguay UY.gif
Location , Montevideo
Serving Montevideo
Elevation 53.035 m
174 ft
174 ft53.035 m
Type medium airport
Coordinates -34° 47' 21.1488", -56° 15' 52.9308"
Runways
Designator Length Width Surface ROPS
18/36 1250 m4,101.05 ft 23 m75.459 ft CON /


METAR
Observation SUAA 241400Z 00000KT 9999 SCT023 22/17 Q1021
Station Melilla
Date/Time 24 February 2018 14:00:00
Wind direction
Wind speed 00 kts
Lowest cloud amount scattered clouds
Temperature 22°C
Dew point 17°C
Humidity 73%
QNH 1021 hPa
Weather condition n/a